Terug naar catalogus

CZ-6A DEB

ActiefPO
NORAD 60825·DEBRIS·🇨🇳 China

Gelanceerd Aug 6, 2024 vanaf Taiyuan Satellite Launch Center

Loading…

Volgende Passages (komende 24 uur)

TLE

VersSource: Space-Track

Epoch: Sep 14, 2026, 16:16 UTC

1 60825U 24140HC  26257.67809003  .00001407  00000-0  42236-3 0  9999
2 60825  88.7925 242.4143 0064722  48.5646 312.1090 14.41013147109682

Volg CZ-6A DEB in realtime met AllMySat

Download on the App Store